Weather History for Newport, VT

Change the Weather History Date:

Tuesday, March 11, 2014

  Actual Average Record
Temperature  
Mean Temperature 35 °F -  
Max Temperature 39 °F 37 °F 60 °F (1977)
Min Temperature 31 °F 17 °F -14 °F (1939)
Degree Days  
Heating Degree Days 30    
Moisture  
Dew Point 28 °F    
Average Humidity 71    
Maximum Humidity 89    
Minimum Humidity 54    
Precipitation  
Precipitation 0.00 in - - ()
Sea Level Pressure  
Sea Level Pressure 29.53 in    
Wind  
Wind Speed 8 mph (WSW)    
Max Wind Speed 17 mph    
Max Gust Speed 23 mph    
Visibility 8 miles    
Events Rain , Snow    
Averages and records for this station are not official NWS values.
T = Trace of Precipitation, MM = Missing Value Source: NWS Daily Summary

Daily Weather History Graph

Daily Weather History Graph

Search for Another Location

Airport:

Trip Planner

Search our weather history database for the weather conditions in past years. The results will help you decide how hot, cold, wet, or windy it might be!

Date:

Astronomy

Mar. 11, 2014 Rise Set
Actual Time 7:08 AM EDT 6:49 PM EDT
Civil Twilight 6:39 AM EDT 7:18 PM EDT
Nautical Twilight 6:05 AM EDT 7:52 PM EDT
Astronomical Twilight 5:31 AM EDT 8:27 PM EDT
Moon 2:14 PM EDT (3/11) 4:09 AM EDT (3/11)
Length of Visible Light 12h 39m
Length of Day
11h 40m
Waxing Gibbous, 78% of the Moon is Illuminated
Mar 11
Waxing Gibbous
Mar 16
Full
Mar 23
Last Quarter
Mar 30
New
Apr 7
First Quarter

Hourly Weather History & Observations

Time (EDT) Temp. Windchill Dew Point Humidity Pressure Visibility Wind Dir Wind Speed Gust Speed Precip Events Conditions
12:15 AM 31.8 °F 23.9 °F 28.0 °F 86% 29.45 in 1.0 mi South 9.2 mph - N/A Snow Snow
12:35 AM 32.0 °F 23.6 °F 28.2 °F 86% 29.45 in 1.0 mi South 10.4 mph - N/A Snow Snow
12:55 AM 32.0 °F 23.0 °F 28.4 °F 87% 29.44 in 3.0 mi South 11.5 mph 16.1 mph N/A Snow Light Snow
1:15 AM 32.0 °F 24.2 °F 28.4 °F 87% 29.44 in 5.0 mi South 9.2 mph - N/A   Overcast
1:35 AM 32.7 °F 25.0 °F 28.8 °F 85% 29.43 in 5.0 mi South 9.2 mph - N/A   Overcast
1:55 AM 32.5 °F 28.1 °F 28.4 °F 85% 29.43 in 7.0 mi South 4.6 mph - N/A Snow Light Snow
2:15 AM 32.5 °F 28.1 °F 28.4 °F 85% 29.42 in 7.0 mi South 4.6 mph - N/A   Overcast
2:35 AM 32.9 °F 27.5 °F 28.8 °F 85% 29.42 in 7.0 mi South 5.8 mph - N/A   Overcast
2:55 AM 32.9 °F 28.5 °F 29.1 °F 86% 29.42 in 7.0 mi South 4.6 mph - N/A   Overcast
3:15 AM 33.1 °F 27.7 °F 29.3 °F 86% 29.41 in 10.0 mi South 5.8 mph - N/A   Overcast
3:35 AM 33.1 °F 27.7 °F 29.7 °F 87% 29.40 in 7.0 mi South 5.8 mph - N/A   Overcast
3:55 AM 33.3 °F 27.1 °F 29.8 °F 87% 29.40 in 7.0 mi South 6.9 mph - N/A Snow Light Snow
4:15 AM 33.4 °F 28.1 °F 29.8 °F 87% 29.40 in 7.0 mi South 5.8 mph - N/A Snow Light Snow
4:35 AM 33.8 °F 30.8 °F 30.2 °F 87% 29.40 in 7.0 mi South 3.5 mph - N/A Snow Light Snow
4:55 AM 33.8 °F 30.8 °F 30.2 °F 87% 29.40 in 7.0 mi South 3.5 mph - N/A   Overcast
5:15 AM 34.0 °F 31.0 °F 30.6 °F 87% 29.41 in 5.0 mi South 3.5 mph - N/A   Overcast
5:35 AM 34.3 °F - 30.7 °F 87% 29.41 in 5.0 mi Calm Calm - N/A   Overcast
5:55 AM 34.0 °F 31.0 °F 30.9 °F 89% 29.41 in 5.0 mi SW 3.5 mph - N/A Snow Light Snow
6:15 AM 34.2 °F 29.0 °F 30.9 °F 88% 29.42 in 4.0 mi SW 5.8 mph - N/A   Overcast
6:35 AM 34.3 °F 31.4 °F 31.1 °F 88% 29.42 in 4.0 mi WSW 3.5 mph - N/A   Overcast
6:55 AM 34.3 °F 30.2 °F 31.1 °F 88% 29.42 in 4.0 mi SW 4.6 mph - N/A   Overcast
7:15 AM 36.7 °F 29.4 °F 32.4 °F 84% 29.43 in 5.0 mi West 10.4 mph - N/A   Overcast
7:40 AM 37.0 °F 29.8 °F 32.0 °F 82% 29.44 in 4.0 mi West 10.4 mph - N/A   Light Drizzle
7:55 AM 37.4 °F 31.4 °F 32.0 °F 81% 29.45 in 2.5 mi WSW 8.1 mph - N/A   Light Drizzle
8:15 AM 37.2 °F 31.2 °F 32.0 °F 81% 29.45 in 3.0 mi West 8.1 mph - N/A Rain Light Rain
8:35 AM 37.4 °F 31.4 °F 32.0 °F 81% 29.46 in 4.0 mi West 8.1 mph - N/A   Light Drizzle
8:55 AM 37.8 °F 29.8 °F 31.8 °F 79% 29.46 in 5.0 mi West 12.7 mph 16.1 mph N/A   Haze
9:15 AM 38.3 °F 30.9 °F 31.1 °F 75% 29.47 in 7.0 mi West 11.5 mph 18.4 mph N/A   Overcast
9:35 AM 37.8 °F 32.5 °F 31.3 °F 77% 29.48 in 5.0 mi West 6.9 mph - N/A   Haze
9:55 AM 37.9 °F 30.5 °F 30.7 °F 75% 29.48 in 7.0 mi WSW 11.5 mph 16.1 mph N/A   Overcast
10:15 AM 37.9 °F 31.5 °F 30.9 °F 76% 29.49 in 5.0 mi WSW 9.2 mph - N/A   Haze
10:35 AM 37.9 °F 30.0 °F 30.7 °F 75% 29.50 in 5.0 mi WSW 12.7 mph 17.3 mph N/A   Haze
10:55 AM 37.6 °F 32.3 °F 30.7 °F 76% 29.50 in 5.0 mi West 6.9 mph 10.4 mph N/A   Haze
11:15 AM 38.3 °F 29.7 °F 28.8 °F 69% 29.51 in 10.0 mi WSW 15.0 mph 23.0 mph N/A   Overcast
11:35 AM 38.3 °F 29.0 °F 28.2 °F 67% 29.51 in 7.0 mi WSW 17.3 mph 21.9 mph N/A   Overcast
11:55 AM 38.5 °F 30.7 °F 27.7 °F 65% 29.51 in 10.0 mi WSW 12.7 mph 19.6 mph N/A   Overcast
12:15 PM 38.3 °F 30.9 °F 28.2 °F 67% 29.52 in 10.0 mi WSW 11.5 mph - N/A   Overcast
12:35 PM 38.3 °F 29.0 °F 28.2 °F 67% 29.52 in 10.0 mi West 17.3 mph 23.0 mph N/A   Overcast
12:55 PM 38.3 °F 30.9 °F 28.0 °F 67% 29.53 in 10.0 mi WSW 11.5 mph 18.4 mph N/A   Overcast
1:15 PM 38.3 °F 31.4 °F 27.5 °F 65% 29.53 in 10.0 mi West 10.4 mph - N/A   Overcast
1:35 PM 38.3 °F 30.5 °F 26.6 °F 63% 29.54 in 10.0 mi West 12.7 mph 23.0 mph N/A   Overcast
1:55 PM 38.3 °F 30.9 °F 26.6 °F 63% 29.54 in 10.0 mi West 11.5 mph 16.1 mph N/A   Overcast
2:15 PM 38.3 °F 30.9 °F 26.4 °F 62% 29.55 in 10.0 mi West 11.5 mph 17.3 mph N/A   Overcast
2:35 PM 38.3 °F 32.5 °F 26.2 °F 62% 29.56 in 10.0 mi WNW 8.1 mph 16.1 mph N/A   Overcast
2:55 PM 39.2 °F 33.6 °F 25.7 °F 58% 29.57 in 10.0 mi WNW 8.1 mph 17.3 mph N/A   Overcast
3:15 PM 39.0 °F 31.0 °F 25.9 °F 59% 29.58 in 10.0 mi West 13.8 mph 18.4 mph N/A   Overcast
3:35 PM 39.0 °F 31.0 °F 24.8 °F 57% 29.58 in 10.0 mi West 13.8 mph 18.4 mph N/A   Unknown
3:55 PM 39.2 °F 32.5 °F 23.9 °F 54% 29.59 in 10.0 mi West 10.4 mph - N/A   Overcast
4:15 PM 39.6 °F 36.3 °F 24.3 °F 54% 29.59 in 10.0 mi West 4.6 mph - N/A   Overcast
4:35 PM 39.4 °F 35.2 °F 23.9 °F 54% 29.59 in 10.0 mi West 5.8 mph - N/A   Overcast
4:55 PM 39.4 °F 32.7 °F 24.1 °F 54% 29.60 in 10.0 mi West 10.4 mph - N/A   Overcast
5:15 PM 39.4 °F 34.5 °F 23.9 °F 54% 29.60 in 10.0 mi WNW 6.9 mph - N/A   Overcast
5:35 PM 39.2 °F 35.9 °F 24.3 °F 55% 29.60 in 10.0 mi West 4.6 mph - N/A   Overcast
5:55 PM 39.6 °F 34.7 °F 24.1 °F 54% 29.61 in 10.0 mi West 6.9 mph - N/A   Overcast
6:15 PM 39.4 °F 35.2 °F 23.9 °F 54% 29.62 in 10.0 mi WNW 5.8 mph - N/A   Overcast
6:35 PM 39.2 °F - 24.1 °F 55% 29.63 in 10.0 mi Calm Calm - N/A   Overcast
6:55 PM 38.7 °F 36.3 °F 25.2 °F 58% 29.64 in 10.0 mi WSW 3.5 mph - N/A   Overcast
7:15 PM 38.3 °F - 25.7 °F 61% 29.65 in 10.0 mi Calm Calm - N/A   Overcast
7:35 PM 38.3 °F 35.9 °F 25.7 °F 61% 29.66 in 10.0 mi SW 3.5 mph - N/A   Overcast
7:55 PM 38.5 °F 35.0 °F 25.9 °F 61% 29.67 in 10.0 mi WSW 4.6 mph - N/A   Overcast
8:15 PM 38.5 °F - 25.3 °F 59% 29.66 in 10.0 mi Calm Calm - N/A   Overcast
8:35 PM 38.3 °F 34.8 °F 24.8 °F 58% 29.67 in 10.0 mi West 4.6 mph - N/A   Overcast
8:55 PM 38.1 °F - 25.2 °F 60% 29.68 in 10.0 mi Calm Calm - N/A   Overcast
9:15 PM 38.1 °F - 25.0 °F 59% 29.68 in 10.0 mi Calm Calm - N/A   Overcast
9:35 PM 38.3 °F 33.9 °F 24.3 °F 57% 29.68 in 10.0 mi NW 5.8 mph - N/A   Overcast
9:55 PM 37.9 °F 34.4 °F 24.1 °F 57% 29.67 in 10.0 mi WNW 4.6 mph - N/A   Overcast
10:15 PM 37.4 °F 32.8 °F 23.9 °F 58% 29.67 in 10.0 mi West 5.8 mph - N/A   Overcast
10:35 PM 36.1 °F 33.5 °F 24.3 °F 62% 29.68 in 10.0 mi West 3.5 mph - N/A   Mostly Cloudy
10:55 PM 36.3 °F - 23.9 °F 61% 29.68 in 10.0 mi Calm Calm - N/A   Overcast
11:15 PM 35.1 °F - 24.4 °F 65% 29.68 in 10.0 mi Calm Calm - N/A   Overcast
11:35 PM 34.5 °F - 25.2 °F 69% 29.68 in 10.0 mi Calm Calm - N/A   Overcast
11:55 PM 34.3 °F 31.4 °F 25.7 °F 71% 29.68 in 10.0 mi South 3.5 mph - N/A   Overcast